Regional Weather Roundup
Issued by NWS

Home | Current Version | Previous Version | Graphics & Text | Print | Product List | Glossary Off
Versions: 1 2 3 4 5 6 7 8 9 10 11 12 13 14 15 16 17 18 19 20 21 22 23 24 25 26 27 28 29 30 31 32 33 34 35 36 37 38 39 40 41 42 43 44 45 46 47 48 49 50

000
ASUS45 KCYS 010510
RWRWY

WYOMING REGIONAL WEATHER ROUNDUP
NATIONAL WEATHER SERVICE CHEYENNE WY
1100 PM MDT SUN APR 30 2017

NOTE:  "FAIR" INDICATES FEW OR NO CLOUDS BELOW 12,000 FEET
WITH NO SIGNIFICANT WEATHER AND/OR OBSTRUCTIONS TO VISIBILITY.

WYZ001-010600-
YELLOWSTONE NATIONAL PARK

CITY           SKY/WX    TMP DP  RH WIND       PRES   REMARKS
LK YELLOWSTONE   N/A     31  29  92 CALM      30.05S
W YELLOWSTONE  NOT AVBL

$$
WYZ002>013-054>058-071-098>099-010600-
NORTHERN WYOMING

CITY           SKY/WX    TMP DP  RH WIND       PRES   REMARKS
JACKSON        MOCLDY    37  36  93 SW3       30.02F
CODY           CLOUDY    47  34  60 N8        29.96R
GREYBULL       FAIR      53  33  46 NW12      29.90R
WORLAND        FAIR      43  36  76 SW6       29.90F
SHERIDAN       CLOUDY    47  37  68 W8        29.91S
BUFFALO        MOCLDY    45  31  58 NW12      29.92F
GILLETTE       FAIR      39  33  79 W13       29.89S WCI  31
HULETT         FAIR      41  32  70 S3        29.88S
NEWCASTLE      FAIR      39  27  60 N7        29.87S WCI  34

$$
WYZ014>020-022>026-101>103-010600-
CENTRAL WYOMING

CITY           SKY/WX    TMP DP  RH WIND       PRES   REMARKS
BIG PINEY      MOCLDY    35  28  75 VRB3      30.07R
PINEDALE       CLOUDY    37  32  81 CALM      30.06F
DUBOIS         CLOUDY    37  28  70 NW7       30.00F WCI  32
LANDER         FAIR      45  27  49 SW7       29.95S
RIVERTON       FAIR      43  31  62 NW14      29.96R
CASPER         CLOUDY    38  33  82 SE5       29.93S WCI  34
DOUGLAS        FAIR      34  30  85 W7        29.92S WCI  28

$$
WYZ021-027>030-104>119-010600-
SOUTHERN WYOMING

CITY           SKY/WX    TMP DP  RH WIND       PRES   REMARKS
EVANSTON       CLOUDY    40  29  64 SW6       30.12R
KEMMERER         N/A     37  30  75 W8        30.09F WCI  31
FORT BRIDGER   FAIR      38  28  69 SW5       30.12S WCI  34
ROCK SPRINGS   FAIR      41  28  60 W14       30.05F
DIXON          LGT RAIN  45  30  55 W13G18    30.08S
RAWLINS        FAIR      41  29  62 W22G32    29.99S
SARATOGA       FAIR      41  30  65 W15G25    30.02S
LARAMIE        CLOUDY    39  24  55 W13       29.96R WCI  31
CHEYENNE       FAIR      43  24  47 N14         N/A
TORRINGTON     FAIR      40  28  62 W6        29.86R
PINE BLUFFS    FAIR      36  28  75 NW9       29.87F WCI  29

$$



USA.gov is the U.S. government's official web portal to all federal, state and local government web resources and services.